^^
Station Historical Data
Daily Summary for May 16, 2017 Units:  English    Metric   Both
« Previous Day
Next Day »
Daily Weekly Monthly Yearly Custom
  High: Low: Average:
Temperature: 77.6 °F 48.4 °F 64 °F
Dew Point: 50.2 °F 42.8 °F 46.8 °F
Humidity: 83 % 33 % 57 %
Wind Speed: 6.6 mph 0.0 mph 1.1 mph
Wind Gust: 15.0 mph - -
Wind:- - WSW
Pressure: 30.09 in 29.97 in -
Precipitation: 0.00 in    
Historical Graphs
 
 
Tabular Data for May 16, 2017
Time Temperature Dew Point Pressure Wind Wind Speed Wind Gust Humidity Rainfall Rate (Hourly) solar Conditions
00:03 56.6 °F 44.1 °F 30.00 in Calm     63 % 0.00 in 0.0 W/m2 CLR
00:08 56.8 °F 44.3 °F 30.00 in NW 0.3 mph 1.2 mph 63 % 0.00 in 0.0 W/m2 CLR
00:13 57.0 °F 44.5 °F 29.99 in Calm   2.3 mph 63 % 0.00 in 0.0 W/m2 CLR
00:18 56.5 °F 44.5 °F 29.99 in Calm   2.3 mph 64 % 0.00 in 0.0 W/m2 CLR
00:23 56.1 °F 44.5 °F 30.00 in Calm     65 % 0.00 in 0.0 W/m2 CLR
00:28 56.2 °F 44.6 °F 29.99 in Calm     65 % 0.00 in 0.0 W/m2 CLR
00:33 56.2 °F 44.6 °F 29.99 in Calm     65 % 0.00 in 0.0 W/m2 CLR
00:38 55.8 °F 44.6 °F 29.99 in Calm     66 % 0.00 in 0.0 W/m2 CLR
00:43 55.3 °F 44.5 °F 29.99 in Calm     67 % 0.00 in 0.0 W/m2 CLR
00:48 55.1 °F 44.7 °F 29.99 in Calm     68 % 0.00 in 0.0 W/m2 CLR
00:53 54.8 °F 44.8 °F 29.99 in Calm     69 % 0.00 in 0.0 W/m2 CLR
00:58 54.5 °F 44.5 °F 29.99 in Calm     69 % 0.00 in 0.0 W/m2 CLR
01:03 54.3 °F 44.3 °F 29.99 in Calm     69 % 0.00 in 0.0 W/m2 CLR
01:08 53.9 °F 44.3 °F 30.00 in Calm     70 % 0.00 in 0.0 W/m2 CLR
01:10 53.8 °F 44.2 °F 30.00 in Calm     70 % 0.00 in 0.0 W/m2 CLR
01:15 53.4 °F 44.2 °F 30.00 in Calm     71 % 0.00 in 0.0 W/m2 CLR
01:20 53.4 °F 44.6 °F 30.00 in Calm     72 % 0.00 in 0.0 W/m2 CLR
01:25 53.3 °F 44.5 °F 30.00 in Calm     72 % 0.00 in 0.0 W/m2 CLR
01:30 53.0 °F 44.2 °F 30.00 in Calm     72 % 0.00 in 0.0 W/m2 CLR
01:35 53.0 °F 44.6 °F 30.00 in Calm     73 % 0.00 in 0.0 W/m2 CLR
01:40 52.7 °F 44.6 °F 30.00 in Calm     74 % 0.00 in 0.0 W/m2 CLR
01:45 52.6 °F 44.5 °F 30.00 in Calm     74 % 0.00 in 0.0 W/m2 CLR
01:50 52.5 °F 44.4 °F 30.00 in Calm     74 % 0.00 in 0.0 W/m2 CLR
01:55 52.7 °F 44.3 °F 29.99 in Calm     73 % 0.00 in 0.0 W/m2 CLR
01:56 52.7 °F 44.3 °F 29.99 in Calm     73 % 0.00 in 0.0 W/m2 CLR
02:00 52.5 °F 44.4 °F 29.99 in Calm     74 % 0.00 in 0.0 W/m2 CLR
02:05 52.2 °F 44.2 °F 29.99 in Calm     74 % 0.00 in 0.0 W/m2 CLR
02:10 51.8 °F 44.1 °F 29.99 in Calm     75 % 0.00 in 0.0 W/m2 CLR
02:15 51.3 °F 43.6 °F 29.99 in Calm     75 % 0.00 in 0.0 W/m2 CLR
02:20 51.1 °F 43.8 °F 29.99 in Calm     76 % 0.00 in 0.0 W/m2 CLR
02:25 50.6 °F 43.7 °F 29.99 in Calm     77 % 0.00 in 0.0 W/m2 CLR
02:30 50.4 °F 43.8 °F 29.99 in Calm     78 % 0.00 in 0.0 W/m2 CLR
02:35 50.6 °F 44.0 °F 30.00 in Calm     78 % 0.00 in 0.0 W/m2 CLR
02:40 50.6 °F 44.0 °F 30.00 in Calm     78 % 0.00 in 0.0 W/m2 CLR
02:45 50.8 °F 44.2 °F 30.00 in Calm     78 % 0.00 in 0.0 W/m2 CLR
02:51 51.2 °F 44.2 °F 30.00 in Calm     77 % 0.00 in 0.0 W/m2 CLR
02:56 51.1 °F 44.1 °F 30.00 in Calm     77 % 0.00 in 0.0 W/m2 CLR
03:01 50.8 °F 43.8 °F 30.00 in Calm     77 % 0.00 in 0.0 W/m2 CLR
03:06 50.7 °F 43.8 °F 30.00 in Calm     77 % 0.00 in 0.0 W/m2 CLR
03:11 50.5 °F 43.9 °F 30.00 in Calm     78 % 0.00 in 0.0 W/m2 CLR
03:16 50.4 °F 43.8 °F 30.00 in Calm     78 % 0.00 in 0.0 W/m2 CLR
03:21 50.5 °F 43.9 °F 30.00 in Calm     78 % 0.00 in 0.0 W/m2 CLR
03:26 50.5 °F 43.9 °F 30.00 in Calm     78 % 0.00 in 0.0 W/m2 CLR
03:29 50.2 °F 43.6 °F 30.00 in Calm     78 % 0.00 in 0.0 W/m2 CLR
03:34 49.9 °F 43.6 °F 30.00 in Calm     79 % 0.00 in 0.0 W/m2 CLR
03:39 49.7 °F 43.5 °F 30.01 in Calm     79 % 0.00 in 0.0 W/m2 CLR
03:44 49.5 °F 43.6 °F 30.01 in Calm     80 % 0.00 in 0.0 W/m2 CLR
03:49 49.6 °F 43.7 °F 30.01 in Calm     80 % 0.00 in 0.0 W/m2 CLR
03:54 49.4 °F 43.5 °F 30.02 in Calm     80 % 0.00 in 0.0 W/m2 CLR
03:59 49.2 °F 43.6 °F 30.02 in Calm     81 % 0.00 in 0.0 W/m2 CLR
04:04 49.3 °F 43.7 °F 30.02 in Calm     81 % 0.00 in 0.0 W/m2 CLR
04:09 49.7 °F 44.1 °F 30.02 in Calm     81 % 0.00 in 0.0 W/m2 CLR
04:14 49.9 °F 44.0 °F 30.02 in Calm     80 % 0.00 in 0.0 W/m2 CLR
04:19 50.0 °F 43.7 °F 30.02 in Calm     79 % 0.00 in 0.0 W/m2 CLR
04:24 50.0 °F 43.7 °F 30.03 in Calm     79 % 0.00 in 0.0 W/m2 CLR
04:30 50.0 °F 43.7 °F 30.03 in Calm     79 % 0.00 in 0.0 W/m2 CLR
04:35 49.8 °F 43.5 °F 30.02 in Calm     79 % 0.00 in 0.0 W/m2 CLR
04:40 49.7 °F 43.8 °F 30.02 in Calm     80 % 0.00 in 0.0 W/m2 CLR
04:45 49.5 °F 43.6 °F 30.02 in Calm     80 % 0.00 in 0.0 W/m2 CLR
04:50 49.3 °F 43.4 °F 30.02 in Calm     80 % 0.00 in 0.0 W/m2 CLR
04:55 49.2 °F 43.3 °F 30.02 in Calm     80 % 0.00 in 0.0 W/m2 CLR
05:00 49.0 °F 43.4 °F 30.02 in Calm     81 % 0.00 in 0.0 W/m2 CLR
05:05 48.6 °F 43.0 °F 30.02 in Calm     81 % 0.00 in 0.0 W/m2 CLR
05:10 48.6 °F 43.4 °F 30.02 in Calm     82 % 0.00 in 0.0 W/m2 CLR
05:15 48.5 °F 43.3 °F 30.02 in Calm     82 % 0.00 in 0.0 W/m2 CLR
05:20 48.4 °F 43.2 °F 30.02 in Calm     82 % 0.00 in 0.0 W/m2 CLR
05:25 48.5 °F 43.3 °F 30.03 in Calm     82 % 0.00 in 0.0 W/m2 CLR
05:30 48.7 °F 43.5 °F 30.03 in Calm     82 % 0.00 in 0.0 W/m2 CLR
05:35 48.6 °F 43.4 °F 30.03 in Calm     82 % 0.00 in 0.0 W/m2 CLR
05:40 48.6 °F 43.7 °F 30.03 in Calm     83 % 0.00 in 0.0 W/m2 CLR
05:45 49.0 °F 43.7 °F 30.03 in Calm     82 % 0.00 in 0.0 W/m2 CLR
05:50 49.2 °F 43.6 °F 30.03 in Calm     81 % 0.00 in 7.0 W/m2 CLR
05:55 49.0 °F 43.4 °F 30.03 in Calm     81 % 0.00 in 9.0 W/m2 CLR
06:00 49.0 °F 43.4 °F 30.03 in Calm     81 % 0.00 in 9.0 W/m2 CLR
06:05 48.7 °F 43.1 °F 30.03 in Calm     81 % 0.00 in 12.0 W/m2 CLR
06:10 48.4 °F 42.8 °F 30.03 in Calm     81 % 0.00 in 16.0 W/m2 CLR
06:15 48.5 °F 43.3 °F 30.04 in Calm     82 % 0.00 in 19.0 W/m2 CLR
06:20 48.7 °F 43.5 °F 30.04 in Calm     82 % 0.00 in 21.0 W/m2 CLR
06:25 49.1 °F 43.8 °F 30.04 in Calm     82 % 0.00 in 23.0 W/m2 CLR
06:30 49.5 °F 43.9 °F 30.05 in Calm     81 % 0.00 in 21.0 W/m2 CLR
06:35 49.7 °F 43.8 °F 30.05 in Calm   1.2 mph 80 % 0.00 in 21.0 W/m2 CLR
06:40 50.2 °F 44.3 °F 30.05 in Calm   1.2 mph 80 % 0.00 in 23.0 W/m2 CLR
06:45 50.7 °F 44.4 °F 30.05 in Calm     79 % 0.00 in 23.0 W/m2 CLR
06:50 51.2 °F 44.6 °F 30.05 in Calm     78 % 0.00 in 25.0 W/m2 CLR
06:55 51.4 °F 44.8 °F 30.05 in Calm   1.2 mph 78 % 0.00 in 25.0 W/m2 CLR
07:00 51.5 °F 44.9 °F 30.05 in Calm   1.2 mph 78 % 0.00 in 25.0 W/m2 CLR
07:06 51.7 °F 45.1 °F 30.05 in Calm     78 % 0.00 in 26.0 W/m2 CLR
07:11 52.3 °F 45.6 °F 30.04 in Calm   1.2 mph 78 % 0.00 in 26.0 W/m2 CLR
07:16 53.1 °F 45.7 °F 30.04 in Calm   1.2 mph 76 % 0.00 in 30.0 W/m2 CLR
07:21 53.6 °F 45.9 °F 30.04 in Calm   1.2 mph 75 % 0.00 in 30.0 W/m2 CLR
07:26 54.1 °F 46.0 °F 30.04 in Calm   1.2 mph 74 % 0.00 in 30.0 W/m2 CLR
07:31 54.7 °F 46.2 °F 30.04 in Calm   1.2 mph 73 % 0.00 in 32.0 W/m2 CLR
07:36 55.3 °F 46.1 °F 30.04 in West 1.3 mph 1.3 mph 71 % 0.00 in 33.0 W/m2 CLR
07:41 55.7 °F 46.1 °F 30.04 in West 0.3 mph 3.5 mph 70 % 0.00 in 33.0 W/m2 CLR
07:46 56.3 °F 46.3 °F 30.04 in Calm   3.5 mph 69 % 0.00 in 33.0 W/m2 CLR
07:51 56.8 °F 46.3 °F 30.04 in Calm   3.5 mph 68 % 0.00 in 35.0 W/m2 CLR
07:56 57.4 °F 46.5 °F 30.04 in Calm   3.5 mph 67 % 0.00 in 35.0 W/m2 CLR
07:57 57.4 °F 46.5 °F 30.04 in Calm   3.5 mph 67 % 0.00 in 35.0 W/m2 CLR
08:02 57.9 °F 46.2 °F 30.05 in WNW 0.6 mph 6.9 mph 65 % 0.00 in 35.0 W/m2 CLR
08:07 58.3 °F 46.6 °F 30.05 in Calm   6.9 mph 65 % 0.00 in 37.0 W/m2 CLR
08:12 59.4 °F 47.6 °F 30.06 in Calm   6.9 mph 65 % 0.00 in 37.0 W/m2 CLR
08:17 60.0 °F 47.4 °F 30.06 in WNW 0.2 mph 8.1 mph 63 % 0.00 in 37.0 W/m2 CLR
08:22 60.7 °F 47.2 °F 30.06 in West 0.1 mph 8.1 mph 61 % 0.00 in 37.0 W/m2 CLR
08:27 61.2 °F 47.2 °F 30.05 in NNW 5.6 mph 6.9 mph 60 % 0.00 in 40.0 W/m2 CLR
08:32 61.5 °F 46.6 °F 30.06 in WNW 4.2 mph 11.5 mph 58 % 0.00 in 139.0 W/m2 CLR
08:37 61.6 °F 46.7 °F 30.06 in WNW 0.3 mph 11.5 mph 58 % 0.00 in 44.0 W/m2 CLR
08:42 62.0 °F 46.6 °F 30.07 in WNW 3.7 mph 10.4 mph 57 % 0.00 in 54.0 W/m2 CLR
08:47 62.5 °F 46.6 °F 30.07 in Calm   10.4 mph 56 % 0.00 in 53.0 W/m2 CLR
08:52 62.9 °F 47.4 °F 30.08 in NW 5.0 mph 10.4 mph 57 % 0.00 in 46.0 W/m2 CLR
08:57 63.0 °F 47.1 °F 30.08 in NW 1.6 mph 9.2 mph 56 % 0.00 in 46.0 W/m2 CLR
09:02 63.4 °F 47.4 °F 30.08 in NNW 2.8 mph 9.2 mph 56 % 0.00 in 587.0 W/m2 CLR
09:07 63.2 °F 46.8 °F 30.08 in Calm   8.1 mph 55 % 0.00 in 587.0 W/m2 CLR
09:12 63.4 °F 46.9 °F 30.09 in WNW 1.5 mph 8.1 mph 55 % 0.00 in 629.0 W/m2 CLR
09:17 64.0 °F 48.0 °F 30.08 in Calm   8.1 mph 56 % 0.00 in 635.0 W/m2 CLR
09:22 64.7 °F 47.7 °F 30.08 in Calm   6.9 mph 54 % 0.00 in 649.0 W/m2 CLR
09:27 64.8 °F 47.8 °F 30.08 in NNW 1.4 mph 5.8 mph 54 % 0.00 in 670.0 W/m2 CLR
09:32 64.9 °F 47.9 °F 30.08 in Calm   8.1 mph 54 % 0.00 in 680.0 W/m2 CLR
09:37 65.0 °F 46.9 °F 30.07 in Calm   8.1 mph 52 % 0.00 in 710.0 W/m2 CLR
09:42 64.8 °F 47.8 °F 30.07 in SSW 1.3 mph 3.5 mph 54 % 0.00 in 722.0 W/m2 CLR
09:47 64.8 °F 48.2 °F 30.07 in SW 2.0 mph 4.6 mph 55 % 0.00 in 742.0 W/m2 CLR
09:52 64.9 °F 47.9 °F 30.07 in SSW 2.0 mph 4.6 mph 54 % 0.00 in 744.0 W/m2 CLR
09:57 64.4 °F 47.9 °F 30.07 in Calm   4.6 mph 55 % 0.00 in 761.0 W/m2 CLR
10:02 64.8 °F 48.2 °F 30.07 in West 0.8 mph 3.5 mph 55 % 0.00 in 765.0 W/m2 CLR
10:07 65.4 °F 49.3 °F 30.07 in WSW 1.3 mph 3.5 mph 56 % 0.00 in 777.0 W/m2 CLR
10:12 65.1 °F 48.5 °F 30.07 in Calm   4.6 mph 55 % 0.00 in 788.0 W/m2 CLR
10:17 65.8 °F 48.7 °F 30.06 in SSW 2.2 mph 6.9 mph 54 % 0.00 in 807.0 W/m2 CLR
10:22 66.1 °F 48.5 °F 30.06 in Calm   6.9 mph 53 % 0.00 in 814.0 W/m2 CLR
10:27 66.4 °F 49.7 °F 30.06 in Calm   6.9 mph 55 % 0.00 in 830.0 W/m2 CLR
10:32 66.8 °F 48.6 °F 30.06 in Calm   5.8 mph 52 % 0.00 in 840.0 W/m2 CLR
10:37 67.9 °F 49.1 °F 30.06 in WSW 1.4 mph 5.8 mph 51 % 0.00 in 847.0 W/m2 CLR
10:42 68.1 °F 49.3 °F 30.06 in WSW 0.8 mph 8.1 mph 51 % 0.00 in 854.0 W/m2 CLR
10:47 68.4 °F 49.0 °F 30.06 in West 3.4 mph 8.1 mph 50 % 0.00 in 872.0 W/m2 CLR
10:52 68.6 °F 48.7 °F 30.06 in Calm   6.9 mph 49 % 0.00 in 882.0 W/m2 CLR
10:57 68.8 °F 48.9 °F 30.06 in West 2.9 mph 8.1 mph 49 % 0.00 in 886.0 W/m2 CLR
11:02 68.8 °F 48.3 °F 30.06 in SSW 6.3 mph 8.1 mph 48 % 0.00 in 898.0 W/m2 CLR
11:08 68.6 °F 48.7 °F 30.06 in SSW 0.4 mph 9.2 mph 49 % 0.00 in 895.0 W/m2 CLR
11:13 68.8 °F 49.4 °F 30.06 in SW 4.4 mph 9.2 mph 50 % 0.00 in 856.0 W/m2 CLR
11:18 68.8 °F 48.9 °F 30.06 in SSW 0.7 mph 6.9 mph 49 % 0.00 in 923.0 W/m2 CLR
11:23 69.6 °F 48.5 °F 30.06 in SW 0.1 mph 9.2 mph 47 % 0.00 in 907.0 W/m2 CLR
11:28 70.0 °F 47.7 °F 30.06 in WSW 6.3 mph 11.5 mph 45 % 0.00 in 921.0 W/m2 CLR
11:33 69.9 °F 47.0 °F 30.05 in WSW 3.1 mph 11.5 mph 44 % 0.00 in 942.0 W/m2 CLR
11:38 71.3 °F 47.6 °F 30.05 in WNW 3.5 mph 11.5 mph 43 % 0.00 in 884.0 W/m2 CLR
11:43 71.0 °F 47.4 °F 30.05 in WSW 4.3 mph 11.5 mph 43 % 0.00 in 958.0 W/m2 CLR
11:44 70.8 °F 47.8 °F 30.06 in WSW 3.5 mph 11.5 mph 44 % 0.00 in 958.0 W/m2 CLR
11:49 70.1 °F 47.8 °F 30.06 in SW 2.9 mph 9.2 mph 45 % 0.00 in 919.0 W/m2 CLR
11:54 70.2 °F 48.4 °F 30.06 in SSW 3.3 mph 8.1 mph 46 % 0.00 in 974.0 W/m2 CLR
11:59 70.4 °F 48.0 °F 30.06 in WSW 3.2 mph 8.1 mph 45 % 0.00 in 954.0 W/m2 CLR
12:04 71.1 °F 47.5 °F 30.06 in West 3.8 mph 9.2 mph 43 % 0.00 in 981.0 W/m2 CLR
12:09 71.2 °F 48.2 °F 30.05 in Calm   9.2 mph 44 % 0.00 in 984.0 W/m2 CLR
12:14 71.2 °F 48.8 °F 30.05 in WSW 1.3 mph 11.5 mph 45 % 0.00 in 997.0 W/m2 CLR
12:19 71.3 °F 47.6 °F 30.05 in SSW 3.5 mph 11.5 mph 43 % 0.00 in 1146.0 W/m2 CLR
12:24 71.7 °F 47.4 °F 30.05 in SW 6.5 mph 9.2 mph 42 % 0.00 in 1118.0 W/m2 CLR
12:29 71.9 °F 48.2 °F 30.05 in South 6.6 mph 11.5 mph 43 % 0.00 in 1118.0 W/m2 CLR
12:34 71.8 °F 47.5 °F 30.05 in WSW 5.5 mph 13.8 mph 42 % 0.00 in 928.0 W/m2 CLR
12:39 71.4 °F 47.1 °F 30.05 in West 1.9 mph 13.8 mph 42 % 0.00 in 499.0 W/m2 CLR
12:44 71.6 °F 47.3 °F 30.05 in WNW 4.8 mph 13.8 mph 42 % 0.00 in 499.0 W/m2 CLR
12:54 71.8 °F 47.5 °F 30.05 in SSW 4.3 mph 9.2 mph 42 % 0.00 in 443.0 W/m2 CLR
12:59 72.6 °F 48.2 °F 30.05 in SSW 3.0 mph 9.2 mph 42 % 0.00 in 970.0 W/m2 CLR
13:04 73.2 °F 48.7 °F 30.05 in WSW 1.0 mph 9.2 mph 42 % 0.00 in 947.0 W/m2 CLR
13:09 73.1 °F 48.0 °F 30.04 in SSW 1.7 mph 9.2 mph 41 % 0.00 in 919.0 W/m2 CLR
13:14 73.2 °F 47.4 °F 30.04 in SW 2.5 mph 9.2 mph 40 % 0.00 in 949.0 W/m2 CLR
13:19 73.6 °F 47.1 °F 30.04 in West 5.0 mph 13.8 mph 39 % 0.00 in 928.0 W/m2 CLR
13:24 74.3 °F 48.4 °F 30.04 in SW 2.1 mph 13.8 mph 40 % 0.00 in 949.0 W/m2 CLR
13:29 74.1 °F 48.2 °F 30.04 in SW 2.8 mph 13.8 mph 40 % 0.00 in 886.0 W/m2 CLR
13:34 74.1 °F 48.2 °F 30.04 in SSW 4.2 mph 10.4 mph 40 % 0.00 in 976.0 W/m2 CLR
13:39 74.1 °F 48.2 °F 30.03 in South 3.9 mph 13.8 mph 40 % 0.00 in 991.0 W/m2 CLR
13:44 74.4 °F 47.8 °F 30.03 in SW 3.1 mph 13.8 mph 39 % 0.00 in 981.0 W/m2 CLR
13:49 74.7 °F 48.1 °F 30.03 in WSW 6.3 mph 15.0 mph 39 % 0.00 in 925.0 W/m2 CLR
13:54 74.2 °F 47.6 °F 30.03 in SW 3.7 mph 15.0 mph 39 % 0.00 in 810.0 W/m2 CLR
14:00 74.2 °F 48.3 °F 30.03 in West 5.2 mph 15.0 mph 40 % 0.00 in 976.0 W/m2 CLR
14:04 74.9 °F 48.3 °F 30.04 in West 3.4 mph 11.5 mph 39 % 0.00 in 976.0 W/m2 CLR
14:09 75.5 °F 48.1 °F 30.03 in West 1.1 mph 10.4 mph 38 % 0.00 in 967.0 W/m2 CLR
14:11 75.4 °F 48.0 °F 30.03 in West 0.9 mph 9.2 mph 38 % 0.00 in 933.0 W/m2 CLR
14:16 75.9 °F 47.8 °F 30.03 in SW 4.6 mph 11.5 mph 37 % 0.00 in 947.0 W/m2 CLR
14:21 76.0 °F 47.8 °F 30.03 in West 1.2 mph 11.5 mph 37 % 0.00 in 933.0 W/m2 CLR
14:26 75.7 °F 49.0 °F 30.03 in South 4.9 mph 15.0 mph 39 % 0.00 in 930.0 W/m2 CLR
14:31 76.0 °F 48.6 °F 30.03 in SW 0.7 mph 15.0 mph 38 % 0.00 in 923.0 W/m2 CLR
14:36 77.4 °F 49.8 °F 30.03 in SSE 0.4 mph 13.8 mph 38 % 0.00 in 918.0 W/m2 CLR
14:41 77.5 °F 48.4 °F 30.03 in WNW 4.0 mph 15.0 mph 36 % 0.00 in 916.0 W/m2 CLR
14:46 76.6 °F 48.4 °F 30.03 in SW 1.7 mph 15.0 mph 37 % 0.00 in 911.0 W/m2 CLR
14:51 77.2 °F 49.6 °F 30.03 in SW 4.9 mph 15.0 mph 38 % 0.00 in 928.0 W/m2 CLR
14:56 77.0 °F 48.7 °F 30.02 in WSW 6.2 mph 11.5 mph 37 % 0.00 in 965.0 W/m2 CLR
15:01 77.6 °F 48.5 °F 30.01 in SSW 4.1 mph 11.5 mph 36 % 0.00 in 686.0 W/m2 CLR
15:06 77.3 °F 49.0 °F 30.02 in SW 1.1 mph 12.7 mph 37 % 0.00 in 304.0 W/m2 CLR
15:11 76.3 °F 48.8 °F 30.02 in WSW 0.1 mph 12.7 mph 38 % 0.00 in 350.0 W/m2 CLR
15:16 76.0 °F 49.2 °F 30.01 in SW 1.2 mph 10.4 mph 39 % 0.00 in 380.0 W/m2 CLR
15:21 76.7 °F 49.2 °F 30.02 in SW 5.4 mph 9.2 mph 38 % 0.00 in 573.0 W/m2 CLR
15:26 76.4 °F 48.9 °F 30.01 in Calm   9.2 mph 38 % 0.00 in 392.0 W/m2 CLR
15:31 76.9 °F 49.4 °F 30.01 in West 2.6 mph 9.2 mph 38 % 0.00 in 740.0 W/m2 CLR
15:36 76.6 °F 49.1 °F 30.01 in West 2.1 mph 8.1 mph 38 % 0.00 in 531.0 W/m2 CLR
15:37 76.7 °F 48.5 °F 30.01 in SW 3.0 mph 8.1 mph 37 % 0.00 in 531.0 W/m2 CLR
15:42 76.8 °F 49.3 °F 30.01 in West 4.0 mph 11.5 mph 38 % 0.00 in 441.0 W/m2 CLR
15:47 77.2 °F 49.6 °F 30.00 in SW 2.1 mph 11.5 mph 38 % 0.00 in 373.0 W/m2 CLR
15:52 76.7 °F 49.2 °F 30.00 in SW 3.5 mph 11.5 mph 38 % 0.00 in 343.0 W/m2 CLR
15:57 76.5 °F 48.3 °F 30.00 in SW 2.3 mph 8.1 mph 37 % 0.00 in 410.0 W/m2 CLR
16:02 76.8 °F 49.3 °F 30.00 in Calm   8.1 mph 38 % 0.00 in 415.0 W/m2 CLR
16:07 76.6 °F 48.4 °F 30.00 in WSW 0.7 mph 8.1 mph 37 % 0.00 in 339.0 W/m2 CLR
16:12 76.7 °F 48.5 °F 30.00 in West 1.5 mph 10.4 mph 37 % 0.00 in 459.0 W/m2 CLR
16:17 76.7 °F 49.2 °F 29.99 in SSW 1.7 mph 10.4 mph 38 % 0.00 in 359.0 W/m2 CLR
16:22 76.8 °F 49.3 °F 30.00 in SW 1.8 mph 9.2 mph 38 % 0.00 in 253.0 W/m2 CLR
16:27 76.4 °F 48.9 °F 30.00 in SW 5.9 mph 10.4 mph 38 % 0.00 in 220.0 W/m2 CLR
16:32 76.0 °F 46.4 °F 30.00 in WSW 4.1 mph 12.7 mph 35 % 0.00 in 195.0 W/m2 CLR
16:37 75.8 °F 46.2 °F 30.00 in WSW 4.5 mph 12.7 mph 35 % 0.00 in 169.0 W/m2 CLR
16:42 75.6 °F 46.0 °F 29.99 in SW 1.8 mph 10.4 mph 35 % 0.00 in 167.0 W/m2 CLR
16:47 75.5 °F 46.7 °F 29.99 in WSW 3.4 mph 11.5 mph 36 % 0.00 in 253.0 W/m2 CLR
16:52 75.6 °F 47.5 °F 29.99 in WSW 1.7 mph 11.5 mph 37 % 0.00 in 241.0 W/m2 CLR
16:57 75.7 °F 46.8 °F 29.99 in SSW 2.4 mph 10.4 mph 36 % 0.00 in 278.0 W/m2 CLR
17:02 75.8 °F 47.7 °F 29.99 in SW 1.0 mph 10.4 mph 37 % 0.00 in 359.0 W/m2 SCT
17:07 75.8 °F 47.7 °F 29.99 in SW 3.4 mph 9.2 mph 37 % 0.00 in 185.0 W/m2 SCT
17:12 75.5 °F 48.1 °F 29.99 in SW 1.1 mph 9.2 mph 38 % 0.00 in 206.0 W/m2 SCT
17:17 75.6 °F 48.9 °F 29.99 in SW 1.6 mph 5.8 mph 39 % 0.00 in 265.0 W/m2 SCT
17:22 75.6 °F 48.2 °F 29.98 in SW 1.5 mph 6.9 mph 38 % 0.00 in 207.0 W/m2 SCT
17:27 76.0 °F 47.8 °F 29.99 in SSW 3.3 mph 8.1 mph 37 % 0.00 in 573.0 W/m2 SCT
17:32 76.2 °F 46.5 °F 29.98 in SW 2.2 mph 10.4 mph 35 % 0.00 in 192.0 W/m2 SCT
17:37 76.0 °F 46.4 °F 29.98 in West 1.3 mph 10.4 mph 35 % 0.00 in 209.0 W/m2 SCT
17:42 75.9 °F 47.0 °F 29.98 in SW 2.0 mph 6.9 mph 36 % 0.00 in 125.0 W/m2 SCT
17:47 75.9 °F 47.0 °F 29.98 in SW 1.4 mph 6.9 mph 36 % 0.00 in 197.0 W/m2 SCT
17:52 76.2 °F 47.3 °F 29.99 in WSW 0.7 mph 9.2 mph 36 % 0.00 in 404.0 W/m2 SCT
17:57 76.8 °F 47.1 °F 29.98 in Calm   9.2 mph 35 % 0.00 in 366.0 W/m2 SCT
18:02 77.0 °F 47.2 °F 29.97 in SW 0.6 mph 3.5 mph 35 % 0.00 in 355.0 W/m2 CLR
18:08 76.9 °F 47.2 °F 29.97 in WSW 0.6 mph 4.6 mph 35 % 0.00 in 292.0 W/m2 CLR
18:13 76.7 °F 46.2 °F 29.97 in SW 4.5 mph 11.5 mph 34 % 0.00 in 325.0 W/m2 CLR
18:18 76.9 °F 45.6 °F 29.97 in WSW 0.9 mph 11.5 mph 33 % 0.00 in 302.0 W/m2 CLR
18:23 76.7 °F 47.0 °F 29.98 in West 3.5 mph 13.8 mph 35 % 0.00 in 271.0 W/m2 CLR
18:28 76.6 °F 47.6 °F 29.98 in West 1.4 mph 13.8 mph 36 % 0.00 in 248.0 W/m2 CLR
18:33 76.7 °F 47.7 °F 29.98 in SW 2.2 mph 10.4 mph 36 % 0.00 in 223.0 W/m2 CLR
18:38 76.3 °F 48.1 °F 29.98 in SW 1.8 mph 6.9 mph 37 % 0.00 in 200.0 W/m2 CLR
18:43 76.0 °F 47.8 °F 29.98 in SSW 1.5 mph 8.1 mph 37 % 0.00 in 188.0 W/m2 CLR
18:48 75.8 °F 47.7 °F 29.98 in SSW 2.8 mph 9.2 mph 37 % 0.00 in 165.0 W/m2 CLR
18:53 75.5 °F 48.1 °F 29.98 in SW 3.1 mph 9.2 mph 38 % 0.00 in 148.0 W/m2 CLR
18:58 75.5 °F 48.8 °F 29.98 in West 1.5 mph 6.9 mph 39 % 0.00 in 130.0 W/m2 CLR
19:03 75.5 °F 48.1 °F 29.98 in WSW 1.6 mph 8.1 mph 38 % 0.00 in 114.0 W/m2 CLR
19:08 75.2 °F 48.5 °F 29.99 in WSW 1.2 mph 8.1 mph 39 % 0.00 in 98.0 W/m2 CLR
19:13 74.9 °F 48.3 °F 29.99 in SW 1.1 mph 8.1 mph 39 % 0.00 in 83.0 W/m2 CLR
19:18 74.7 °F 48.8 °F 29.99 in SW 3.9 mph 6.9 mph 40 % 0.00 in 69.0 W/m2 CLR
19:23 74.4 °F 48.5 °F 29.99 in Calm   6.9 mph 40 % 0.00 in 42.0 W/m2 CLR
19:28 74.2 °F 48.3 °F 29.99 in WSW 3.4 mph 6.9 mph 40 % 0.00 in 39.0 W/m2 CLR
19:33 74.0 °F 48.1 °F 29.99 in WSW 2.0 mph 8.1 mph 40 % 0.00 in 35.0 W/m2 CLR
19:38 73.7 °F 47.9 °F 29.99 in WSW 0.7 mph 8.1 mph 40 % 0.00 in 33.0 W/m2 CLR
19:43 73.5 °F 47.7 °F 29.99 in WSW 1.1 mph 6.9 mph 40 % 0.00 in 30.0 W/m2 CLR
19:48 73.3 °F 46.8 °F 29.99 in WSW 2.8 mph 6.9 mph 39 % 0.00 in 25.0 W/m2 CLR
19:53 73.1 °F 47.3 °F 29.99 in Calm   6.9 mph 40 % 0.00 in 23.0 W/m2 CLR
19:58 72.9 °F 47.2 °F 29.99 in Calm   5.8 mph 40 % 0.00 in 18.0 W/m2 CLR
20:03 72.6 °F 46.9 °F 29.99 in Calm   2.3 mph 40 % 0.00 in 12.0 W/m2 CLR
20:08 72.2 °F 47.2 °F 29.99 in Calm     41 % 0.00 in 7.0 W/m2 CLR
20:13 71.9 °F 46.9 °F 29.99 in Calm     41 % 0.00 in 0.0 W/m2 CLR
20:19 71.6 °F 47.3 °F 29.99 in Calm     42 % 0.00 in 0.0 W/m2 CLR
20:24 71.3 °F 47.0 °F 29.99 in Calm     42 % 0.00 in 0.0 W/m2 CLR
20:29 71.1 °F 46.8 °F 29.99 in Calm     42 % 0.00 in 0.0 W/m2 CLR
20:34 70.9 °F 47.9 °F 29.99 in Calm     44 % 0.00 in 0.0 W/m2 CLR
20:39 70.1 °F 48.4 °F 29.99 in Calm     46 % 0.00 in 0.0 W/m2 CLR
20:44 69.4 °F 48.9 °F 29.98 in Calm     48 % 0.00 in 0.0 W/m2 CLR
20:49 68.2 °F 48.8 °F 29.99 in Calm     50 % 0.00 in 0.0 W/m2 CLR
20:54 67.7 °F 48.4 °F 29.99 in Calm     50 % 0.00 in 0.0 W/m2 CLR
20:59 67.5 °F 48.2 °F 29.99 in Calm     50 % 0.00 in 0.0 W/m2 CLR
21:04 67.3 °F 48.5 °F 29.99 in Calm     51 % 0.00 in 0.0 W/m2 CLR
21:09 66.8 °F 49.1 °F 29.99 in Calm     53 % 0.00 in 0.0 W/m2 CLR
21:14 66.8 °F 48.6 °F 29.99 in Calm     52 % 0.00 in 0.0 W/m2 CLR
21:19 66.8 °F 48.6 °F 29.99 in Calm     52 % 0.00 in 0.0 W/m2 CLR
21:24 66.8 °F 49.1 °F 29.99 in Calm     53 % 0.00 in 0.0 W/m2 CLR
21:29 66.1 °F 49.5 °F 29.99 in Calm     55 % 0.00 in 0.0 W/m2 CLR
21:34 65.2 °F 49.1 °F 29.99 in Calm     56 % 0.00 in 0.0 W/m2 CLR
21:39 65.0 °F 48.4 °F 29.99 in Calm     55 % 0.00 in 0.0 W/m2 CLR
21:44 65.2 °F 48.6 °F 29.99 in Calm     55 % 0.00 in 0.0 W/m2 CLR
21:49 64.8 °F 48.2 °F 29.99 in Calm     55 % 0.00 in 0.0 W/m2 CLR
21:54 64.4 °F 48.4 °F 29.99 in Calm     56 % 0.00 in 0.0 W/m2 CLR
21:59 64.1 °F 48.5 °F 30.00 in Calm     57 % 0.00 in 0.0 W/m2 CLR
22:04 63.9 °F 48.4 °F 30.00 in Calm     57 % 0.00 in 0.0 W/m2 CLR
22:09 63.6 °F 49.0 °F 30.00 in Calm     59 % 0.00 in 0.0 W/m2 CLR
22:14 63.3 °F 48.7 °F 30.00 in Calm     59 % 0.00 in 0.0 W/m2 CLR
22:15 63.3 °F 48.7 °F 30.00 in Calm     59 % 0.00 in 0.0 W/m2 CLR
22:20 63.3 °F 49.6 °F 29.99 in Calm     61 % 0.00 in 0.0 W/m2 CLR
22:25 63.0 °F 48.9 °F 29.99 in Calm     60 % 0.00 in 0.0 W/m2 CLR
22:30 62.8 °F 49.1 °F 29.99 in Calm     61 % 0.00 in 0.0 W/m2 CLR
22:35 62.6 °F 49.0 °F 30.00 in Calm     61 % 0.00 in 0.0 W/m2 CLR
22:40 62.7 °F 49.5 °F 30.00 in Calm     62 % 0.00 in 0.0 W/m2 CLR
22:45 62.4 °F 49.2 °F 30.00 in Calm     62 % 0.00 in 0.0 W/m2 CLR
22:50 61.8 °F 49.1 °F 30.00 in Calm     63 % 0.00 in 0.0 W/m2 CLR
22:55 61.9 °F 49.2 °F 30.00 in Calm     63 % 0.00 in 0.0 W/m2 CLR
23:00 61.7 °F 49.4 °F 30.00 in Calm     64 % 0.00 in 0.0 W/m2 CLR
23:05 61.5 °F 49.6 °F 30.00 in Calm     65 % 0.00 in 0.0 W/m2 CLR
23:10 61.2 °F 49.3 °F 30.00 in Calm     65 % 0.00 in 0.0 W/m2 CLR
23:15 60.9 °F 49.5 °F 30.00 in Calm     66 % 0.00 in 0.0 W/m2 CLR
23:20 60.7 °F 49.7 °F 30.00 in Calm     67 % 0.00 in 0.0 W/m2 CLR
23:22 60.8 °F 49.8 °F 30.00 in Calm     67 % 0.00 in 0.0 W/m2 CLR
23:27 60.8 °F 50.2 °F 30.00 in Calm     68 % 0.00 in 0.0 W/m2 CLR
23:32 60.7 °F 50.1 °F 30.00 in Calm     68 % 0.00 in 0.0 W/m2 CLR
23:37 60.4 °F 49.8 °F 30.00 in Calm     68 % 0.00 in 0.0 W/m2 CLR
23:42 60.5 °F 49.9 °F 30.00 in Calm     68 % 0.00 in 0.0 W/m2 CLR
23:47 60.4 °F 50.2 °F 30.00 in Calm     69 % 0.00 in 0.0 W/m2 CLR
23:52 60.2 °F 50.0 °F 30.00 in Calm     69 % 0.00 in 0.0 W/m2 CLR
23:57 59.7 °F 49.5 °F 30.00 in Calm     69 % 0.00 in 0.0 W/m2 CLR
Air Products Campus Weather
Compliments of Weather Underground - 3.5 mb